Погода в Байките

Погода в Байките : погода сейчас, прогноз погоды и архив. Всё, что Вы хотите узнать о погоде в Байките!

Хотите узнать прогноз погоды в Байките? Тогда Вам сюда: Погода в Байките

Поиск расширенной информации на нашем сайте:

Другие новости

Новости СМИ2

Главная страница сайта

Новости сайта

03.07.2017

Напоминаем, что на нашем специализированном сайте Метеоцентр.Азия вы можете получить высокодетализированные автоматические прогнозы погоды по пунктам России, СНГ и мира в авиационном формате (включающие направление и скорость ветра, видимость, явления погоды, количество и форму облачности, нижнюю и верхнюю границу облачности).


Погода в Байките - сегодня

Время (UTC), дата Ветер
(°,м/с) 
Видим.   Явления Облачность Т
(°С)
Тd
(°С)
f(%) Тe
(°С)
Pmin
(гПа)
dP
(гПа)
Po
(мм)
O2
(г/м3)
Тmin Tmax R s Состояние
почвы
15 15.04.18 тихо ()   4000 м    10/0 средняя, верхняя 
[Ac lent|Cs]
-2 -10 54 -2  1002.8  0.3  729  297           
18 15.04.18 тихо ()   4000 м    10/5 1000 м средняя 
[Sc|Ac As]
-3.1 -6.6 77 -3  1002.5  -0.4  729  298           
21 15.04.18 тихо ()   4000 м    10/8 1000 м средняя 
[Sc|Ac As]
-3.3 -6.5 78 -3  1001.5  -1  728  298           
00 16.04.18 130 (ЮВ) 20000 м    10/8 1000 м кучево-дожд., средняя, верхняя 
[Cb cap|Ac lent|Ci fib]
-3 -7.2 73 -3  1000.6  -0.9  727  297  -3.5      76  равномерный
мокрый или
старый снег
100% 
03 16.04.18 190 (Ю) 20000 м  в посл. час ливневой снег  10/10 600 м кучево-дожд. 
[Cb cap]
-1.5 -4.9 78 -1  999.8  -0.5  727  295           
06 16.04.18 120 (ЮВ) 4000 м  слаб. ливневой снег  10/10 600 м кучево-дожд. 
[Cb cap]
+1.5 -4.6 64 +1  998.7  -0.8  726  291           
12 16.04.18 230 (ЮЗ) 20000 м  {ливн. осадки}  8/8 600 м кучево-дожд. 
[Cb cap]
+1.1 -4.5 66 +2  1000  1.4  727  292    +1.6     
15 16.04.18 320 (СЗ) 4000 м    8/8 600 м кучево-дожд. 
[Cb cap]
-2.8 -5.8 80 -4  1001.5  1.1  728  297           
18 16.04.18 330 (СЗ) 4000 м  слаб. ливневой снег  10/10 600 м кучево-дожд. 
[Cb cap]
-3 -5.4 83 -4  1001.3  -0.3  728  297           
00 17.04.18 310 (СЗ) 4000 м  слаб. ливневой снег  10/10 600 м кучево-дожд. 
[Cb cap]
-2.7 -5.3 82 -4  997.2  -2.3  725  296  -3.4    0.0  77  равномерный
мокрый или
старый снег
100% 
09 17.04.18 170 (Ю) 4000 м  слаб. ливневой снег  8/8 600 м кучево-дожд. 
[Cb cap]
+1.4 +0.6 94 +1  991.7  0.2  721  289           
12 17.04.18 210 (ЮЗ) 7{10}  20000 м  {ливн. осадки}  9/9 600 м кучево-дожд. 
[Cb cap]
-0.3 -8.1 56 -4  994.6  2.7  723  292    +4.2     
15 17.04.18 230 (ЮЗ) 4000 м    8/4 600 м кучево-дожд., верхняя 
[Cb cap|Ci fib]
-3.5 -9.1 65 -5  995.6  0.5  724  296           
18 17.04.18 130 (ЮВ) 4000 м    4/0 верхняя 
[Ci sp]
-6.5 -10.6 73 -9  995.8  -0.1  724  300           
21 17.04.18 160 (Ю) 4000 м  слаб. ливневой снег  10/10 600 м кучево-дожд. 
[Cb cap]
-7.4 -8.7 90 -7  996.1  0.2  724  301           
00 18.04.18 200 (Ю) 2000 м  слаб. ливневой снег  10/10 600 м кучево-дожд. 
[Cb cap]
-5.7 -7.2 89 -5  997.8  1.9  725  299  -7.4    81  равномерный
мокрый или
старый снег
100% 
03 18.04.18 270 (З) 10 км  слаб. ливневой снег  10/10 600 м кучево-дожд., верхняя 
[Cb cap|Ci fib]
-2.5 -8.5 63 -4  1000.9  3.4  728  297           
12 18.04.18 260 (З) 20000 м    10/5 600 м верхняя 
[Cu Sc|Ci fib]
-5.3 -15.8 43 -7  1012  2.9  735  303    -2.5  0.0     
15 18.04.18 250 (З) 4000 м    10/4 600 м верхняя 
[Cu Sc|Ci fib]
-8.7 -17.2 50 -8  1014.9  2.5  737  308           
18 18.04.18 240 (ЮЗ) 4000 м  слаб. ливневой снег  10/10 600 м кучево-дожд. 
[Cb cap]
-9.5 -15.2 63 -9  1016  0.9  738  309           
21 18.04.18 280 (З) 4000 м  {ливн. осадки}  8/3 600 м верхняя 
[Cu Sc|Ci fib]
-11.7 -17.9 60 -12  1016.7  0.4  738  312           
00 19.04.18 020 (С) 20000 м  {ливн. осадки}  9/0 верхняя 
[Ci fib]
-15.4 -19.6 70 -18  1018.1  739  317  -15.4    0.0  381  лёд 
03 19.04.18 250 (З) 20000 м    3/3 1000 м 
[Cu hum]
-7 -16.3 47 -7  1017.9  0.7  740  307           
06 19.04.18 250 (З) 20000 м    9/9 1000 м 
[Cu Sc]
-4.6 -15.1 44 -4  1016.3  1.1  739  304           
09 19.04.18 240 (ЮЗ) 20000 м    8/8 1000 м 
[Cu Sc]
-3.2 -14.9 40 -3  1016.2  739  302           
Время (UTC), дата Ветер
(°,м/с) 
Видим.   Явления Облачность Т
(°С)
Тd
(°С)
f(%) Тe
(°С)
Pmin
(гПа)
dP
(гПа)
Po
(мм)
O2
(г/м3)
Тmin Tmax R s Состояние
почвы

Для получения пояснительной информации подведите курсор к названию столбца.

ПОГОДА в Байките - архив

Всё, что Вы хотите узнать о погоде в Байките - удобно и подробно!

Выберите нужную дату (начиная с 1 января 2015* года) и нажмите кнопку "Найти".
Будут отображены архивные сводки погоды по пункту Байкит, начиная с указанной даты.


Отображать данные в формате CSV (для использования в таблицах Excel)


Внимание! Наш архив погоды предназначен исключительно для личного некоммерческого использования в познавательных целях. Если Вам необходимы официальные справки о состоянии погоды (для производственных, юридических, коммерческих и т.п. целей), обращайтесь в органы Росгидромета.

*Примечание: данная дата относится к архиву по метеостанциям СССР (Россия, СНГ, Балтия).
Архив по метеостанциям Зарубежной Европы и Азии (кроме Китая) хранится 10 дней, по другим регионам земного шара (Китай, Африка, Америка, Австралия, Океания) - 1 день.

Байкит - район местоположения метеостанции


Название, широта, долгота, высота метеостанции:
Байкит 61.7°ш. 96.4°д. 262 м над ур. моря [Российская Федерация]

Дополнительная информация

В oтличие oт бoльшинства пoгoдных сайтoв мы публикуем пoдрoбную метеoинфoрмацию в детальнoм прoфессиoнальнoм фoрмате.

Характеристики температуры и влажнoсти вoздуха измеряются на высoте 2 м в тени вдали oт зданий и деревьев.
Скoрoсть ветра измеряется на высoте 10 м (на урoвне рoста челoвека скoрoсть ветра ниже в 1.5-2 раза). Если метеoстанция нахoдится в гoрoде или в лесу, тo скoрoсть ветра занижена на 2-4 м/с пo сравнению с oткрытым местoм. Скoрoсть ветра над акватoриями крупных рек и oзёр, а также на вершинах хoлмoв на 2-5 м/с выше, чем в oбычных услoвиях.
Атмoсфернoе давление в разных тoчках местнoсти мoжет значительнo oтличаться oт давления на метеoстанции, в зависимoсти oт услoвий рельефа (при пoдъёме на 10 м давление пoнижается примернo на 1 мм рт.ст.).